Find Starlink 3702

NORAD ID: 52100 Int'l Des: 2022-029 Owner: SPXS Country: US Constellation: starlink operational
LEOCIRCULAR

Live Position

Loading 3D Globe...

About Starlink 3702

Description loading...

Upcoming Passes

Passes for default location (London). Set your location on the main map for personalized predictions.

Altitude History

Loading altitude history...

Two-Line Element Set

1 52100U 22029N 26127.15223458 -.00000113 00000-0 11011-4 0 9995
2 52100 53.2168 186.6715 0001057 85.4543 274.6570 15.08837931229482
Epoch: May 7, 2026 • Age: 10 hours

Current Status

Altitude 539.7 km
Velocity 7.59 km/s
Sub-Earth Point 11.70°N, 78.36°W
Launch Date Mar 19, 2022
Age 4.1 years
Type internet

Technical Details

Classification Payload
Mass 297.00 kg
Dry Mass 275.00 kg
Total Mass 297.00 kg
Length 0.20 m
Diameter 2.80 m
Span 9.00 m
Shape Box + pan
Manufacturer SPXS
Bus Type Starlink
Phase Status In Orbit
Owner/State SPXS/US

Most Searched